Tracking 19146 objects as of 24-Apr-2018
HD Live streaming from Space Station
objects crossing your sky now

FENGYUN 1C DEB

Track FENGYUN 1C DEB now!
10-day predictions


NORAD ID: 35128
Int'l Code: 1999-025DLG
Perigee: 781.7 km
Apogee: 985.4 km
Inclination: 98.3 °
Period: 102.5 minutes
Semi major axis: 7254 km
RCS: 0.0122 m2 (small)
Launch date: May 10, 1999
Source: People's Republic of China (PRC)
Launch site: Taiyaun Space Center, China (TSC)

Note: This is SATELLITE DEBRIS
aabbcc
Your satellite tracking list
Your tracking list is empty




NASA's NSSDC Master Catalog

Two Line Element Set (TLE):
1 35128U 99025DLG 18112.86982140  .00001164  00000-0  68303-3 0  9990
2 35128  98.3351 136.2816 0140411 104.1705 257.5110 14.05030505513054
Source of the keplerian elements: AFSPC